Regional Weather Roundup
Issued by NWS

Home | Current Version | Previous Version | Graphics & Text | Print | Product List | Glossary On
Versions: 1 2 3 4 5 6 7 8 9 10 11 12 13 14 15 16 17 18 19 20 21 22 23 24 25 26 27 28 29 30 31 32 33 34 35 36 37 38 39 40 41 42 43 44 45 46 47 48 49 50
635
ASUS43 KLOT 091503
RWRIL

ILLINOIS REGIONAL WEATHER ROUNDUP
NATIONAL WEATHER SERVICE CHICAGO/ROMEOVILLE IL
900 AM CST TUE FEB 09 2016

NOTE: "FAIR" INDICATES FEW OR NO CLOUDS BELOW 12,000 FEET WITH NO
SIGNIFICANT WEATHER AND/OR OBSTRUCTIONS TO VISIBILITY.

* THESE STATIONS ARE NOT UNDER NWS QUALITY CONTROL. THEY ALSO MAY NOT
  REPORT WEATHER SUCH AS PRECIPITATION OR FOG.

ILZ001-002-007-009-015-016-024-091600-
NORTHWEST ILLINOIS

CITY           SKY/WX    TMP DP  RH WIND       PRES   REMARKS
MOLINE         PTSUNNY   16   5  62 NW18G24   29.95R WCI   0
STERLING*      PTSUNNY   14   3  62 NW16      29.89R WCI  -2
$$

ILZ003-004-008-010-011-017-018-091600-
NORTH CENTRAL ILLINOIS

CITY           SKY/WX    TMP DP  RH WIND       PRES   REMARKS
ROCKFORD       LGT SNOW  13   7  77 NW13      29.89R WCI  -2
FREEPORT*      CLOUDY    11   6  78 NW16G23   29.90R HAZE    WCI  -5
$$

ILZ005-006-012>014-019>023-091600-
NORTHEAST ILLINOIS

CITY           SKY/WX    TMP DP  RH WIND       PRES   REMARKS
CHICAGO-OHARE  LGT SNOW  15   9  76 NW17G23   29.82R WCI  -1
CHICAGO-MIDWAY LGT SNOW  17   9  70 NW18      29.82R FOG     WCI   1
AURORA         LGT SNOW  16   9  74 NW22      29.84S WCI  -2
LANSING*       LGT SNOW  19  14  82 NW10      29.81R WCI   7
WAUKEGAN       CLOUDY    15   8  73 NW13G21   29.80S WCI   1
DUPAGE AIRPORT FLURRIES  14   6  70 NW16      29.82R WCI  -2
WHEELING       LGT SNOW  15   8  73 NW17G25   29.83S WCI  -1
NORTHERLY ISL    N/A     18  12  77 W13         N/A  WCI   5
$$

LMZ740>746-091600-
SOUTHERN LAKE MICHIGAN

STATION/POSITION SKY/WX   TEMP    WIND        PRES    VSBY  WAVE
                          AIR SEA DIR/SP/G                  HT/PER
                          (F)     (DEG/KT/KT) (MB)    (MI)  (FT/S)
HARRISON CRIB              18     310/ 18/ 20   N/A
BURNHAM HARBOR             18     320/ 11/ 15   N/A
CALUMET HARBOR             17     290/ 12/ 16 1008.6R
BURNS HARBOR               22     310/ 19/ 25 1008.8R
MICHIGAN CITY              25     300/ 25/ 27   N/A
$$

ILZ025>027-034>036-040-047-049-050-058-095>099-091600-
WEST-CENTRAL ILLINOIS

CITY           SKY/WX    TMP DP  RH WIND       PRES   REMARKS
QUINCY         LGT SNOW  15   8  73 NW21G26   29.99R WCI  -2
MACOMB*        CLOUDY    16  10  78 NW25G31   29.98R HAZE    WCI  -3
$$

ILZ028>032-037-038-041>044-048-051>054-059>061-091600-
CENTRAL ILLINOIS

CITY           SKY/WX    TMP DP  RH WIND       PRES   REMARKS
BLOOMINGTON    LGT SNOW  16  12  84 NW16      29.87R FOG     WCI   1
DECATUR        LGT SNOW  18  11  74 NW16G23   29.89R WCI   3
PEORIA         LGT SNOW  15   7  70 NW9G18    29.93R WCI   3
SPRINGFIELD    LGT SNOW  18   9  68 NW18G26   29.94R WCI   2
TAYLORVILLE    NOT AVBL
$$

ILZ033-039-045-046-055>057-062-063-091600-
EAST-CENTRAL ILLINOIS

CITY           SKY/WX    TMP DP  RH WIND       PRES   REMARKS
CHAMPAIGN      FLURRIES  18  12  77 NW20      29.85S WCI   2
MATTOON        LGT SNOW  18  12  77 NW20      29.86S WCI   2
$$

ILZ079-100>102-091600-
SOUTHWEST ILLINOIS

CITY           SKY/WX    TMP DP  RH WIND       PRES   REMARKS
ALTON          LGT SNOW  18  12  79 NW17      29.98R WCI   2
BELLEVILLE     FLURRIES  19  12  73 NW14G26   29.97R WCI   6
CAHOKIA*       LGT SNOW  20  13  74 NW17      29.99R WCI   5
SPARTA*        LGT SNOW  19  17  90 NW7       29.97R VSB 1   WCI  10
$$

ILZ064>066-069>071-074>076-080>082-084>086-088>090-092>094-091600-
SOUTH-CENTRAL ILLINOIS

CITY           SKY/WX    TMP DP  RH WIND       PRES   REMARKS
CARBONDALE     LGT SNOW  20  14  77 NW10      29.97R WCI   9
MARION         LGT SNOW  21  12  68 NW17      29.97R WCI   7
MT. VERNON     CLOUDY    19   9  63 NW6       29.93S WCI  11
CENTRALIA*     LGT SNOW  20  15  81 NW17G25   29.93R WCI   6
SALEM*         LGT SNOW  20  14  76 NW10G18   29.93R WCI   9
$$

ILZ067-068-072-073-078-083-087-091-091600-
SOUTHEAST ILLINOIS

CITY           SKY/WX    TMP DP  RH WIND       PRES   REMARKS
LAWRENCEVILLE  FLURRIES  20  14  77 NW14      29.89S WCI   7
HARRISBURG*    LGT SNOW  21  15  79 NW12      29.95R WCI   9
ROBINSON*      LGT SNOW  19  14  80 NW9       29.89S WCI   9
CARMI*         CLOUDY    21  13  73 NW13G18   29.93R WCI   8
$$

ABBREVIATIONS USED IN REMARKS
   TC - TEMPERATURE IN CELSIUS
  WCI - WIND CHILL INDEX
   HX - HEAT INDEX
  VSB - VISIBILITY
$$





USA.gov is the U.S. government's official web portal to all federal, state and local government web resources and services.